SWARM C

Last updated on Sun Jun 21 2026 00:03:39 GMT+0000 (Coordinated Universal Time)

1 39453U 13067C 26171.38108794 .00008759 00000+0 15021-3 0 9998 2 39453 87.3318 53.6359 0003064 96.5296 263.6314 15.51004755706705
UTC large
Height (km)
Speed (km/s)
/
Latitude / Longitude
Inclination (degrees)
Orbital Period (minutes)
Azimuth
Elevation
Range (km)
Doppler Factor

Next 0 passes for location: London (51.5072 / 0.1276)

No passes found over London.
SWARM C